Location: Unspecified
(40.7945°N, 111.1337°W)
Time: 00:17:38
(UTC-06:00)

Cosmos 1674 - Pass Details

Date: 28 March 2019
Orbit: 495 x 519 km, 82.5° (Epoch: 20 October)

Event Time Altitude Azimuth Distance (km) Brightness Sun altitude
Rises 21:50:24 0° 332° (NNW) 2,614 7.1 -23.5°
Reaches altitude 10° 21:53:14 10° 308° (NW) 1,729 6.4 -24.0°
Maximum altitude 21:55:25 15° 273° (W) 1,444 5.7 -24.4°
Drops below altitude 10° 21:57:37 10° 238° (WSW) 1,729 5.7 -24.7°
Enters shadow 22:01:07 -2° 211° (SSW) 2,853 6.5 -25.3°
